Location: Unspecified
(38.2117°N, 0.0000°E)
Time: 06:03:33
(UTC+00:00)

SL-14 DEB - Visible Passes

Search period start: 04 April 2026 00:00
Search period end: 14 April 2026 00:00
Orbit: 748 x 794 km, 81.2° (Epoch: 28 March)

Date Brightness Start Highest point End Pass type
(mag) Time Alt. Az. Time Alt. Az. Time Alt. Az.
4 Apr ? 19:51:34 10° NW 19:54:52 17° W 19:58:07 10° SW visible
5 Apr ? 19:14:50 10° NNW 19:19:25 31° W 19:23:57 10° SSW visible
7 Apr ? 19:47:18 10° WNW 19:48:34 11° W 19:49:49 10° W visible
8 Apr ? 19:09:19 10° NW 19:13:10 21° W 19:16:58 10° SW visible
11 Apr ? 19:04:11 10° NW 19:06:46 14° W 19:09:20 10° WSW visible
